When you browse on this site, cookies collect data to enhance your experience and personalize the content and advertising you see.
Visit our Privacy Policy to learn more. By continuing to use the site, you agree to this use of cookies and data.
  • In Hungary
  • List of Countries
  • For 7 days
  • Water Temperature
  • Satellite Maps
  • Weather Map
  • News
  • Weather Widgets
  • user-avatar
    Login

    Hourly Weather Dhamar

    Today, 16 November, Friday

    Time Temperature Precipitation Wind Pressure Humidity
    00:00 +16°C° 0 mm 1 mps 584 mmHg 41%
    01:00 +15°C° 0 mm 1 mps 584 mmHg 41%
    02:00 +15°C° 0 mm 1 mps 583 mmHg 41%
    03:00 +13°C° 0 mm 0 mps 583 mmHg 41%
    04:00 +13°C° 0 mm 0 mps 583 mmHg 41%
    05:00 +12°C° 0 mm 0 mps 583 mmHg 41%
    06:00 +12°C° 0 mm 0 mps 583 mmHg 42%
    07:00 +14°C° 0 mm 0 mps 584 mmHg 36%
    08:00 +18°C° 0 mm 1 mps 585 mmHg 31%
    09:00 +20°C° 0 mm 1 mps 587 mmHg 25%
    10:00 +21°C° 0 mm 1 mps 587 mmHg 24%
    11:00 +21°C° 0 mm 2 mps 587 mmHg 23%
    12:00 +23°C° 0 mm 2 mps 587 mmHg 22%
    13:00 +23°C° 0 mm 2 mps 587 mmHg 23%
    14:00 +24°C° 0 mm 3 mps 587 mmHg 24%
    15:00 +22°C° 0 mm 3 mps 587 mmHg 26%
    16:00 +21°C° 0 mm 3 mps 586 mmHg 31%
    17:00 +21°C° 0 mm 2 mps 586 mmHg 36%
    18:00 +20°C° 0 mm 2 mps 586 mmHg 40%
    19:00 +19°C° 0 mm 2 mps 586 mmHg 44%
    20:00 +18°C° 0 mm 2 mps 586 mmHg 47%
    21:00 +19°C° 0 mm 1 mps 586 mmHg 51%
    22:00 +18°C° 0 mm 1 mps 586 mmHg 52%
    23:00 +18°C° 0 mm 1 mps 586 mmHg 54%

    Tomorrow, 17 November, Saturday

    Time Temperature Precipitation Wind Pressure Humidity
    00:00 +18°C° 0 mm 1 mps 586 mmHg 56%
    01:00 +16°C° 0 mm 1 mps 585 mmHg 57%
    02:00 +16°C° 0 mm 1 mps 585 mmHg 59%
    03:00 +15°C° 0 mm 1 mps 585 mmHg 61%
    04:00 +15°C° 0 mm 1 mps 585 mmHg 62%
    05:00 +13°C° 0 mm 0 mps 585 mmHg 62%
    06:00 +13°C° 0 mm 0 mps 585 mmHg 63%
    07:00 +16°C° 0 mm 1 mps 585 mmHg 55%
    08:00 +18°C° 0 mm 1 mps 586 mmHg 47%
    09:00 +19°C° 0 mm 2 mps 587 mmHg 39%
    10:00 +20°C° 0 mm 2 mps 587 mmHg 36%
    11:00 +21°C° 0 mm 3 mps 588 mmHg 32%
    12:00 +22°C° 0 mm 3 mps 588 mmHg 29%
    13:00 +22°C° 0.1 mm 4 mps 588 mmHg 31%
    14:00 +22°C° 0.1 mm 4 mps 587 mmHg 33%
    15:00 +22°C° 0.1 mm 4 mps 587 mmHg 35%
    16:00 +21°C° 0.4 mm 4 mps 587 mmHg 40%
    17:00 +20°C° 0.4 mm 4 mps 586 mmHg 46%
    18:00 +19°C° 0.4 mm 4 mps 586 mmHg 51%
    19:00 +18°C° 0.1 mm 3 mps 586 mmHg 52%
    20:00 +18°C° 0.1 mm 3 mps 586 mmHg 53%
    21:00 +18°C° 0.1 mm 2 mps 586 mmHg 54%
    22:00 +17°C° 0 mm 2 mps 586 mmHg 55%
    23:00 +18°C° 0 mm 1 mps 586 mmHg 57%

    Day after tomorrow, 18 November, Sunday

    Time Temperature Precipitation Wind Pressure Humidity
    00:00 +16°C° 0 mm 1 mps 586 mmHg 58%
    01:00 +16°C° 0 mm 1 mps 585 mmHg 57%
    02:00 +16°C° 0 mm 1 mps 585 mmHg 57%
    03:00 +15°C° 0 mm 1 mps 584 mmHg 56%
    04:00 +15°C° 0 mm 1 mps 584 mmHg 55%
    05:00 +15°C° 0 mm 1 mps 584 mmHg 54%
    06:00 +14°C° 0 mm 1 mps 584 mmHg 53%
    07:00 +16°C° 0 mm 1 mps 585 mmHg 47%
    08:00 +18°C° 0 mm 1 mps 586 mmHg 41%
    09:00 +19°C° 0 mm 2 mps 587 mmHg 35%
    10:00 +20°C° 0 mm 2 mps 587 mmHg 32%
    11:00 +21°C° 0 mm 2 mps 588 mmHg 30%
    12:00 +22°C° 0 mm 3 mps 588 mmHg 28%
    13:00 +22°C° 0 mm 3 mps 587 mmHg 29%
    14:00 +22°C° 0 mm 3 mps 587 mmHg 30%
    15:00 +22°C° 0 mm 4 mps 586 mmHg 32%
    16:00 +21°C° 0.1 mm 4 mps 586 mmHg 38%
    17:00 +20°C° 0.1 mm 3 mps 586 mmHg 45%
    18:00 +19°C° 0.1 mm 3 mps 585 mmHg 51%
    19:00 +18°C° 0.1 mm 3 mps 586 mmHg 52%
    20:00 +18°C° 0.1 mm 2 mps 586 mmHg 52%
    21:00 +18°C° 0.1 mm 2 mps 586 mmHg 53%
    22:00 +17°C° 0 mm 2 mps 586 mmHg 53%
    23:00 +17°C° 0 mm 2 mps 586 mmHg 54%

    19 November, Monday

    Time Temperature Precipitation Wind Pressure Humidity
    00:00 +16°C° 0 mm 1 mps 585 mmHg 54%
    01:00 +16°C° 0 mm 1 mps 585 mmHg 54%
    02:00 +16°C° 0 mm 1 mps 584 mmHg 54%
    03:00 +15°C° 0 mm 1 mps 584 mmHg 54%
    04:00 +15°C° 0 mm 1 mps 584 mmHg 54%
    05:00 +14°C° 0 mm 1 mps 584 mmHg 54%
    06:00 +14°C° 0 mm 1 mps 584 mmHg 54%
    07:00 +15°C° 0 mm 1 mps 585 mmHg 48%
    08:00 +17°C° 0 mm 2 mps 586 mmHg 42%
    09:00 +18°C° 0 mm 2 mps 587 mmHg 36%
    10:00 +19°C° 0 mm 2 mps 587 mmHg 33%
    11:00 +20°C° 0 mm 2 mps 587 mmHg 31%
    12:00 +23°C° 0 mm 2 mps 588 mmHg 28%
    13:00 +22°C° 0 mm 3 mps 587 mmHg 29%
    14:00 +22°C° 0 mm 3 mps 587 mmHg 29%
    15:00 +23°C° 0 mm 4 mps 586 mmHg 29%
    16:00 +21°C° 0 mm 3 mps 586 mmHg 35%
    17:00 +20°C° 0 mm 3 mps 586 mmHg 41%
    18:00 +19°C° 0 mm 3 mps 585 mmHg 46%
    19:00 +19°C° 0 mm 3 mps 586 mmHg 48%
    20:00 +18°C° 0 mm 2 mps 586 mmHg 51%
    21:00 +17°C° 0 mm 2 mps 586 mmHg 53%
    22:00 +18°C° 0 mm 1 mps 586 mmHg 53%
    23:00 +18°C° 0 mm 1 mps 586 mmHg 54%

    20 November, Tuesday

    Time Temperature Precipitation Wind Pressure Humidity
    00:00 +16°C° 0 mm 1 mps 585 mmHg 54%
    01:00 +16°C° 0 mm 1 mps 585 mmHg 54%
    02:00 +15°C° 0 mm 1 mps 584 mmHg 53%
    03:00 +15°C° 0 mm 1 mps 584 mmHg 53%
    04:00 +15°C° 0 mm 1 mps 584 mmHg 52%
    05:00 +14°C° 0 mm 1 mps 584 mmHg 52%
    06:00 +14°C° 0 mm 1 mps 584 mmHg 51%
    07:00 +15°C° 0 mm 1 mps 585 mmHg 45%
    08:00 +18°C° 0 mm 1 mps 586 mmHg 39%
    09:00 +20°C° 0 mm 1 mps 587 mmHg 33%
    10:00 +20°C° 0 mm 2 mps 588 mmHg 31%
    11:00 +21°C° 0 mm 2 mps 588 mmHg 28%
    12:00 +23°C° 0 mm 2 mps 588 mmHg 26%
    13:00 +22°C° 0 mm 3 mps 587 mmHg 27%
    14:00 +22°C° 0 mm 3 mps 587 mmHg 28%
    15:00 +23°C° 0 mm 4 mps 587 mmHg 30%
    16:00 +21°C° 0.1 mm 4 mps 586 mmHg 36%
    17:00 +20°C° 0.1 mm 4 mps 586 mmHg 42%
    18:00 +19°C° 0.1 mm 4 mps 586 mmHg 49%
    19:00 +18°C° 0.1 mm 3 mps 586 mmHg 50%
    20:00 +18°C° 0.1 mm 3 mps 587 mmHg 52%
    21:00 +17°C° 0.1 mm 2 mps 587 mmHg 54%
    22:00 +17°C° 0 mm 2 mps 586 mmHg 55%
    23:00 +18°C° 0 mm 1 mps 586 mmHg 55%

    21 November, Wednesday

    Time Temperature Precipitation Wind Pressure Humidity
    00:00 +16°C° 0 mm 1 mps 586 mmHg 56%
    01:00 +16°C° 0 mm 1 mps 585 mmHg 57%
    02:00 +15°C° 0 mm 1 mps 585 mmHg 57%
    03:00 +15°C° 0 mm 1 mps 584 mmHg 57%
    04:00 +15°C° 0 mm 1 mps 584 mmHg 57%
    05:00 +14°C° 0 mm 1 mps 585 mmHg 57%
    06:00 +14°C° 0 mm 1 mps 585 mmHg 57%
    07:00 +15°C° 0 mm 2 mps 586 mmHg 51%
    08:00 +17°C° 0 mm 2 mps 587 mmHg 45%
    09:00 +18°C° 0 mm 2 mps 588 mmHg 39%
    10:00 +19°C° 0 mm 2 mps 588 mmHg 36%
    11:00 +21°C° 0 mm 3 mps 588 mmHg 33%
    12:00 +22°C° 0 mm 3 mps 588 mmHg 30%
    13:00 +22°C° 0 mm 3 mps 587 mmHg 30%
    14:00 +22°C° 0 mm 4 mps 587 mmHg 31%
    15:00 +22°C° 0 mm 4 mps 586 mmHg 31%
    16:00 +21°C° 0.1 mm 4 mps 586 mmHg 36%
    17:00 +20°C° 0.1 mm 4 mps 586 mmHg 41%
    18:00 +19°C° 0.1 mm 4 mps 586 mmHg 46%
    19:00 +18°C° 0 mm 3 mps 586 mmHg 47%
    20:00 +18°C° 0 mm 3 mps 586 mmHg 48%
    21:00 +17°C° 0 mm 3 mps 587 mmHg 48%
    22:00 +17°C° 0 mm 2 mps 586 mmHg 49%
    23:00 +16°C° 0 mm 2 mps 586 mmHg 49%
    Show more